Regional Weather Roundup
Issued by NWS

Home | Current Version | Previous Version | Graphics & Text | Print | Product List | Glossary On
Versions: 1 2 3 4 5 6 7 8 9 10 11 12 13 14 15 16 17 18 19 20 21 22 23 24 25 26 27 28 29 30 31 32 33 34 35 36 37 38 39 40 41 42 43 44 45 46 47 48 49 50
326
ASUS43 KOAX 201202
RWRNE

WEATHER ROUNDUP FOR NEBRASKA
NATIONAL WEATHER SERVICE OMAHA NE
700 AM CDT THU JUL 20 2017

NOTES: SATELLITE DATA IS BEING USED TO AUGMENT CLOUD COVER ABOVE
       12000 FEET.
       "FAIR" INDICATES FEW OR NO CLOUDS BELOW 12,000 FEET WITH NO
       SIGNIFICANT WEATHER AND/OR OBSTRUCTIONS TO VISIBILITY.


NEZ001>004-019>022-054>056-201300-
NEBRASKA PANHANDLE

CITY           SKY/WX    TMP DP  RH WIND       PRES   REMARKS
SCOTTSBLUFF    CLOUDY    68  64  87 NW3       30.15R
6HR MIN TEMP:  68; 6HR MAX TEMP:  71; 6HR PCP:  0.03;

ALLIANCE       CLOUDY    66  63  90 S6        30.10S
6HR MIN TEMP:  66; 6HR MAX TEMP:  68; 6HR PCP:  0.06;

CHADRON        CLOUDY    67  65  93 SW5       30.09R
6HR MIN TEMP:  67; 6HR MAX TEMP:  79; 6HR PCP:  0.12;

GORDON         FAIR      67  62  82 NW5       30.09F
6HR MIN TEMP:  67; 6HR MAX TEMP:  77; 6HR PCP:  0.43;

KIMBALL        CLOUDY    65  64  97 W5        30.22R
SIDNEY         MOCLDY    68  62  81 CALM      30.16S
6HR MIN TEMP:  66; 6HR MAX TEMP:  74; 6HR PCP: TRACE;

$$

NEZ057>060-069>072-079>082-201300-
SOUTHWEST NEBRASKA

CITY           SKY/WX    TMP DP  RH WIND       PRES   REMARKS
NORTH PLATTE   CLOUDY    71  62  73 CALM      30.06R
6HR MIN TEMP:  69; 6HR MAX TEMP:  91; 6HR PCP: TRACE;

IMPERIAL       CLOUDY    72  61  68 NE14      30.06R
6HR MIN TEMP:  68; 6HR MAX TEMP:  79;

LEXINGTON      MOCLDY    73  68  84 E6        30.02S
MCCOOK         CLEAR     68  61  78 E9        30.01R
6HR MIN TEMP:  67; 6HR MAX TEMP:  83;

OGALLALA       CLOUDY    71  64  76 SE5       30.09R
$$

NEZ005>010-023>029-035>040-094-201300-
NORTH CENTRAL NEBRASKA

CITY           SKY/WX    TMP DP  RH WIND       PRES   REMARKS
VALENTINE      LGT RAIN  72  64  76 SW9       30.01F
6HR MIN TEMP:  72; 6HR MAX TEMP:  79; 6HR PCP:  0.01;

AINSWORTH      CLOUDY    74  66  77 W12G18    30.07R
BROKEN BOW     CLOUDY    68  64  87 CALM      30.03R
6HR MIN TEMP:  68; 6HR MAX TEMP:  80; 6HR PCP: TRACE;

O`NEILL        CLOUDY    76  66  72 NE10      29.99F
ORD            CLOUDY    71  66  84 NE3       29.99S
6HR MIN TEMP:  70; 6HR MAX TEMP:  81;

THEDFORD       HVY RAIN  71  67  88 W7        30.13R
$$

NEZ041-046>049-061>064-073>077-083>087-201300-
SOUTH CENTRAL NEBRASKA

CITY           SKY/WX    TMP DP  RH WIND       PRES   REMARKS
GRAND ISLAND   CLOUDY    74  67  78 S9        29.98F
6HR MIN TEMP:  73; 6HR MAX TEMP:  82;

AURORA         MOCLDY    75  66  75 S6        29.99F
HASTINGS       PTCLDY    74  65  73 CALM      30.03S
6HR MIN TEMP:  71; 6HR MAX TEMP:  80;

HEBRON         PTCLDY    74  67  78 CALM      30.00S
HOLDREGE       CLOUDY    70  64  83 E8        30.03F
KEARNEY        PTCLDY    73  65  75 S8        30.02S
YORK           MOCLDY    73  68  83 S7        30.00S
$$

NEZ011>018-030>034-042>045-201300-
NORTHEAST NEBRASKA

CITY           SKY/WX    TMP DP  RH WIND       PRES   REMARKS
NORFOLK        CLOUDY    74  66  76 CALM      29.98S
6HR MIN TEMP:  73; 6HR MAX TEMP:  86;

ALBION         CLOUDY    73  67  80 CALM      30.00R
BLAIR          RAIN      80  68  67 W6        29.97R
COLUMBUS       PTCLDY    76  69  79 NW5       29.99R
FREMONT        MOCLDY    78  67  69 CALM      29.97S
TEKAMAH        CLOUDY    77  70  79 SW5       29.94R
6HR MIN TEMP:  76; 6HR MAX TEMP:  84;

WAYNE          CLOUDY    74  74  99 CALM      29.98R
$$

NEZ050>053-065>068-078-088>093-201300-
SOUTHEAST NEBRASKA

CITY           SKY/WX    TMP DP  RH WIND       PRES   REMARKS
LINCOLN        CLOUDY    75  69  81 S7        29.98S
6HR MIN TEMP:  74; 6HR MAX TEMP:  85;

OMAHA EPPLEY   MOCLDY    81  69  67 S7        29.95R
6HR MIN TEMP:  80; 6HR MAX TEMP:  86;

BEATRICE       PTCLDY    74  69  85 N6        30.00S
FALLS CITY     CLEAR     76  70  82 SW6       29.98R
6HR MIN TEMP:  75; 6HR MAX TEMP:  81;

NEBRASKA CITY  CLEAR     74  73  96 CALM      29.99R
PLATTSMOUTH    CLOUDY    76  68  78 S3        29.98S
$$

NEZ044-045-051>053-067-201300-
OMAHA AREA

CITY           SKY/WX    TMP DP  RH WIND       PRES   REMARKS
OMAHA EPPLEY   MOCLDY    81  69  67 S7        29.95R
6HR MIN TEMP:  80; 6HR MAX TEMP:  86;

BLAIR          RAIN      80  68  67 W6        29.97R
FREMONT        MOCLDY    78  67  69 CALM      29.97S
MILLARD        MOCLDY    81  72  74 CALM      29.95S
OFFUTT AFB     CLOUDY    76  70  82 SE5       29.95S
PLATTSMOUTH    CLOUDY    76  68  78 S3        29.98S
WAHOO          FAIR      78  66  66 MISG      29.98R
$$




USA.gov is the U.S. government's official web portal to all federal, state and local government web resources and services.